Lexington Weather

Lexington, Massachusetts, USA

54°F
5/18/2024 12:44am 
  • Lexington Conditions: Clear
  • Temperature: 54.0°F / 12.2°CColder 0.9°F than last hour.
  • Dew Point: 50.2°F 
  • Relative Humidity: 87%Increased 3.0% since last hour.
  • Wind: Calm, 10-min avg: Calm, gust: 2 mph
  • Barometer: 29.95 in Steady
  • Visibility: 10 miles
  • Rain Today: 0.00 in
  •   

Regional Weather Roundup
for Boston, MA

        
000
ASUS41 KBOX 110510
RWRBOX

REGIONAL WEATHER ROUNDUP
NATIONAL WEATHER SERVICE BOSTON/NORTON MA
100 AM EDT SAT MAY 11 2024

NOTE:  "FAIR" INDICATES FEW OR NO CLOUDS BELOW 12,000 FEET WITH NO 
SIGNIFICANT WEATHER AND/OR OBSTRUCTIONS TO VISIBILITY.

MAZALL-110600-
EASTERN MASSACHUSETTS
  
CITY           SKY/WX    TMP DP  RH WIND       PRES   REMARKS
BOSTON         PTCLDY    45  39  79 NE7       29.86S                  
BEVERLY        PTCLDY    38  34  85 CALM      29.86S                  
LAWRENCE       CLEAR     40  38  93 CALM      29.88S                  
BEDFORD        PTCLDY    40  37  89 CALM      29.85F                  
NORWOOD        PTCLDY    45  40  82 CALM      29.86S                  
MARSHFIELD     CLOUDY    46  41  81 NE7       29.85S                  
PLYMOUTH       MOCLDY    46  39  76 NE8       29.84S                  
TAUNTON        MOCLDY    45  39  79 MISG      29.84S                  
NEW BEDFORD    MOCLDY    45  40  82 N7        29.82F                  
$$

MAZALL-110600-
CAPE COD AND THE ISLANDS
  
CITY           SKY/WX    TMP DP  RH WIND       PRES   REMARKS
FALMOUTH       NOT AVBL                                               
HYANNIS        CLOUDY    44  38  79 NE9       29.82S                  
CHATHAM        CLOUDY    45  38  76 E10       29.84S                  
PROVINCETOWN   CLOUDY    44  41  89 E7        29.86S                  
NANTUCKET      CLOUDY    44  39  82 E9        29.81F                  
MARTHAS VNYRD  CLOUDY    47  41  80 E12       29.81F                  
$$
 
MAZALL-110600-
CENTRAL AND WESTERN MASSACHUSETTS
  
CITY           SKY/WX    TMP DP  RH WIND       PRES   REMARKS
WORCESTER      CLEAR     44  32  62 NE3       29.84S                  
FITCHBURG      CLEAR     42  35  76 CALM      29.87S                  
ORANGE         MOCLDY    47  35  63 CALM      29.86R                  
SPRINGFIELD    CLOUDY    49  41  76 CALM      29.83R                  
WESTFIELD      MOCLDY    43  39  86 CALM      29.85R                  
NORTH ADAMS    MOCLDY    47  41  80 CALM      29.84R                  
PITTSFIELD     PTCLDY    43  40  89 CALM      29.82R                  
$$
 
RIZALL-110600-
RHODE ISLAND
  
CITY           SKY/WX    TMP DP  RH WIND       PRES   REMARKS
PROVIDENCE     MOCLDY    46  39  76 NE10      29.84F                  
NEWPORT        MOCLDY    45  38  76 NE9       29.81F                  
BLOCK ISLAND   CLOUDY    46  39  76 NE10      29.82F                  
SMITHFIELD     MOCLDY    43  38  82 N6        29.84F                  
WESTERLY       MOCLDY    47  37  68 N6        29.82F                  
$$
 
CTZALL-110600-
CONNECTICUT
  
CITY           SKY/WX    TMP DP  RH WIND       PRES   REMARKS
BRADLEY INTL   MOCLDY    50  38  63 N3        29.85R                  
HARTFORD       MOCLDY    46  36  68 E3        29.85R                  
PLAINVILLE     CLOUDY    43  43 100 CALM      29.84S                  
BRIDGEPORT     CLOUDY    49  46  90 NW3       29.84R                  
DANBURY        MOCLDY    45  43  93 SW3       29.86R FOG              
GROTON         PTCLDY    47  35  63 N6        29.82S                  
NEW HAVEN      CLEAR     46  42  86 N3        29.84R                  
CHESTER        CLEAR     45  39  81 N5        29.84R                  
MERIDEN        CLEAR     46  43  89 CALM      29.85R                  
WILLIMANTIC    CLEAR     43  37  79 CALM      29.84F                  
OXFORD         CLEAR     41  40  96 N3        29.85R FOG              
$$

MEZ002-015-021-024-NHZ003-005-008-011-012-014-VTZ005-008-110600-
NORTHERN NEW ENGLAND
  
CITY           SKY/WX    TMP DP  RH WIND       PRES   REMARKS
PORTLAND ME    CLEAR     40  38  93 CALM      29.89S                  
BANGOR ME      CLOUDY    45  38  76 CALM      29.89S                  
CONCORD NH     CLOUDY    42  38  85 SE3       29.87S                  
MANCHESTER NH  PTCLDY    43  37  79 CALM      29.86S                  
NASHUA NH      CLEAR     42  41  96 NW5       29.88R                  
PORTSMOUTH NH  PTCLDY    42  39  87 CALM      29.86S                  
JAFFREY NH     CLOUDY    44  37  76 CALM      29.85S                  
KEENE NH       CLOUDY    48  40  73 CALM      29.85S                  
BURLINGTON VT  CLEAR     48  44  86 NE3       29.80F                  
MT. WASHINGTON CLOUDY    28  27  93 NE13        N/A  WCI  18          
$$

NYZ052-076-110600-
EASTERN NEW YORK
  
CITY           SKY/WX    TMP DP  RH WIND       PRES   REMARKS
ALBANY         MOCLDY    52  46  80 CALM      29.84R                  
NEW YORK CITY  CLOUDY    51  40  65 CALM      29.85R                  
$$
 
ANZALL-110600-
MARINE OBSERVATIONS
  
STATION/POSITION TIME  TEMP    WIND        PRES    VSBY  WAVE
                       AIR SEA DIR/SP/G                  HT/PER
                 (UTC) (F)     (DEG/KT/KT) (MB)    (MI)  (FT/S)
BOSTON BUOY      0450   47 50   50/ 10/ 12 1011.3F         3/ 6
BUZZARDS BAY     0400   47      40/ 14/ 16 1010.1F
NANTUCKET SOUND  0450   46 54   70/ 12/ 16 1009.6F         2/ 3
MASS BAY-STELLWA 0304   48 49   50/ 10/ 10 1010.9F  1 7/8  3/ 5
ISLE OF SHOALS   0400   47      40/  6/  7 1010.9F
S OF BLOCK IS    0456      49                N/A           4/ 5
$$

......................KEY.........................
  SKY/WX - SKY CONDITION/PRESENT WEATHER
  TMP    - TEMPERATURE IN FAHRENHEIT
  DWPT   - DEWPOINT IN FAHRENHEIT
  RH     - RELATIVE HUMIDITY IN PERCENT
  WIND   - DIRECTION AND SPEED IN MPH
  PRES   - MEAN SEA LEVEL PRESSURE IN INCHES OF HG
  WCI    - WIND CHILL INDEX
  VSB    - VISIBILITY IN MILES
  HX     - HEAT INDEX
  TC     - TEMPERATURE IN CELSIUS
  VRB    - VARIABLE WIND DIRECTION
  N/A    - NOT AVAILABLE
  
      

Other recent Regional Weather Roundups

Sat May 18, 12:10am EDT

Fri May 17, 11:10pm EDT

Fri May 17, 10:10pm EDT

Fri May 17, 9:10pm EDT

Fri May 17, 8:10pm EDT

Fri May 17, 7:10pm EDT

Fri May 17, 6:10pm EDT

Fri May 17, 5:10pm EDT

Fri May 17, 4:10pm EDT

Fri May 17, 3:10pm EDT

Fri May 17, 2:10pm EDT

Fri May 17, 1:10pm EDT

Fri May 17, 12:10pm EDT

Fri May 17, 11:10am EDT

Fri May 17, 10:10am EDT

Fri May 17, 9:10am EDT

Fri May 17, 8:10am EDT

Fri May 17, 7:10am EDT

Fri May 17, 6:10am EDT

Fri May 17, 5:10am EDT

Fri May 17, 4:10am EDT

Fri May 17, 3:10am EDT

Fri May 17, 2:10am EDT

Fri May 17, 1:10am EDT

Fri May 17, 12:10am EDT

Thu May 16, 11:10pm EDT

Thu May 16, 10:10pm EDT

Thu May 16, 9:10pm EDT

Thu May 16, 8:10pm EDT

Thu May 16, 7:10pm EDT

Thu May 16, 6:10pm EDT

Thu May 16, 5:10pm EDT

Thu May 16, 4:10pm EDT

Thu May 16, 3:10pm EDT

Thu May 16, 2:10pm EDT

Thu May 16, 1:10pm EDT

Thu May 16, 12:10pm EDT

Thu May 16, 11:10am EDT

Thu May 16, 10:10am EDT

Thu May 16, 9:10am EDT

Thu May 16, 8:10am EDT

Thu May 16, 7:10am EDT

Thu May 16, 6:10am EDT

Thu May 16, 5:10am EDT

Thu May 16, 4:10am EDT

Thu May 16, 3:10am EDT

Thu May 16, 2:10am EDT

Thu May 16, 1:10am EDT

Thu May 16, 12:10am EDT

Wed May 15, 11:10pm EDT

Wed May 15, 10:10pm EDT

Wed May 15, 9:10pm EDT

Wed May 15, 8:10pm EDT

Wed May 15, 7:10pm EDT

Wed May 15, 6:10pm EDT

Wed May 15, 5:10pm EDT

Wed May 15, 4:10pm EDT

Wed May 15, 3:10pm EDT

Wed May 15, 2:10pm EDT

Wed May 15, 1:10pm EDT

Wed May 15, 12:10pm EDT

Wed May 15, 11:10am EDT

Wed May 15, 10:10am EDT

Wed May 15, 9:10am EDT

Wed May 15, 8:10am EDT

Wed May 15, 7:10am EDT

Wed May 15, 6:10am EDT

Wed May 15, 5:10am EDT

Wed May 15, 4:10am EDT

Wed May 15, 3:10am EDT

Wed May 15, 2:10am EDT

Wed May 15, 1:10am EDT

Wed May 15, 12:10am EDT

Tue May 14, 11:10pm EDT

Tue May 14, 10:10pm EDT

Tue May 14, 9:10pm EDT

Tue May 14, 8:10pm EDT

Tue May 14, 7:10pm EDT

Tue May 14, 6:10pm EDT

Tue May 14, 5:10pm EDT

Tue May 14, 4:10pm EDT

Tue May 14, 3:10pm EDT

Tue May 14, 2:10pm EDT

Tue May 14, 1:10pm EDT

Tue May 14, 12:10pm EDT

Tue May 14, 11:10am EDT

Tue May 14, 10:10am EDT

Tue May 14, 9:10am EDT

Tue May 14, 8:10am EDT

Tue May 14, 7:10am EDT

Tue May 14, 6:10am EDT

Tue May 14, 5:10am EDT

Tue May 14, 4:10am EDT

Tue May 14, 3:10am EDT

Tue May 14, 2:10am EDT

Tue May 14, 1:10am EDT

Tue May 14, 12:10am EDT

Mon May 13, 11:10pm EDT

Mon May 13, 10:10pm EDT

Mon May 13, 9:10pm EDT

Mon May 13, 8:10pm EDT

Mon May 13, 7:10pm EDT

Mon May 13, 6:10pm EDT

Mon May 13, 5:10pm EDT

Mon May 13, 4:10pm EDT

Mon May 13, 3:10pm EDT

Mon May 13, 2:10pm EDT

Mon May 13, 1:10pm EDT

Mon May 13, 12:10pm EDT

Mon May 13, 11:10am EDT

Mon May 13, 10:10am EDT

Mon May 13, 9:10am EDT

Mon May 13, 8:10am EDT

Mon May 13, 7:10am EDT

Mon May 13, 6:10am EDT

Mon May 13, 5:10am EDT

Mon May 13, 4:10am EDT

Mon May 13, 3:10am EDT

Mon May 13, 2:10am EDT

Mon May 13, 1:10am EDT

Mon May 13, 12:10am EDT

Sun May 12, 11:10pm EDT

Sun May 12, 10:10pm EDT

Sun May 12, 9:10pm EDT

Sun May 12, 8:10pm EDT

Sun May 12, 7:10pm EDT

Sun May 12, 6:10pm EDT

Sun May 12, 5:10pm EDT

Sun May 12, 4:10pm EDT

Sun May 12, 3:10pm EDT

Sun May 12, 2:10pm EDT

Sun May 12, 1:10pm EDT

Sun May 12, 12:10pm EDT

Sun May 12, 11:10am EDT

Sun May 12, 10:10am EDT

Sun May 12, 9:10am EDT

Sun May 12, 8:10am EDT

Sun May 12, 7:10am EDT

Sun May 12, 6:10am EDT

Sun May 12, 5:10am EDT

Sun May 12, 4:10am EDT

Sun May 12, 3:10am EDT

Sun May 12, 2:10am EDT

Sun May 12, 1:10am EDT

Sun May 12, 12:10am EDT

Sat May 11, 11:10pm EDT

Sat May 11, 10:10pm EDT

Sat May 11, 9:10pm EDT

Sat May 11, 8:10pm EDT

Sat May 11, 7:10pm EDT

Sat May 11, 6:10pm EDT

Sat May 11, 5:10pm EDT

Sat May 11, 4:10pm EDT

Sat May 11, 3:10pm EDT

Sat May 11, 2:10pm EDT

Sat May 11, 1:10pm EDT

Sat May 11, 12:10pm EDT

Sat May 11, 11:10am EDT

Sat May 11, 10:10am EDT

Sat May 11, 9:10am EDT

Sat May 11, 8:10am EDT

Sat May 11, 7:10am EDT

Sat May 11, 6:10am EDT

Sat May 11, 5:10am EDT

Sat May 11, 4:10am EDT

Sat May 11, 3:10am EDT

Sat May 11, 2:10am EDT